{"data":{"norad_id":60352,"intl_designator":"2024-137A","name":"STRIX-4","alt_names":[],"object_type":"PAYLOAD","status":"ACTIVE","operator":null,"country":"JPN","launch_date":"2024-08-02","launch_site_code":"RLLB","launch_vehicle":null,"mission":null,"orbit_class":"UNKNOWN","rcs_meters":null,"size_class":null,"mass_kg":null,"dimensions":null,"purposes":[],"wikipedia_slug":null,"has_3d_model":false,"image_url":null,"decayed_at":null,"tle_current":{"epoch":"2026-05-25T03:24:26.824896Z","epoch_age_seconds":72952,"freshness":"FRESH","line1":"1 60352U 24137A   26145.14197714  .00018157  00000+0  58750-3 0  9994","line2":"2 60352  43.0163  56.0359 0016395 157.1460 203.0126 15.31622630100487","mean_motion":15.3162263,"eccentricity":0.0016395,"inclination_deg":43.0163,"raan_deg":56.0359,"arg_perigee_deg":157.146,"mean_anomaly_deg":203.0126,"bstar":0.0005875,"rev_number":10048,"period_min":94.017937042364,"perigee_km":459.74152890119,"apogee_km":482.19975285563,"semimajor_km":6849.1076408784,"source":"CELESTRAK","updated_at":"2026-05-25T13:38:02.006867Z"}}}